Location: Plymouth
(43.7570°N, 71.6890°W)
Time: 14:04:40
(UTC-05:00)

Daily predictions for brighter satellites

Satellite Brightness Start Highest point End
(mag) Time Altitude Azimuth Time Altitude Azimuth Time Altitude Azimuth
Resurs 01 Rocket 2.9 17:57:00 10° ESE 18:00:19 21° ENE 18:03:40 10° NNE
Cosmos 2219 4.1 17:58:32 10° SSE 18:03:22 29° ESE 18:08:13 10° NE
BREEZE-M DEB (TANK) 4.3 18:02:37 10° SSW 18:06:07 20° SSE 18:08:14 10° E
BREEZE-M DEB (TANK) 3.3 18:04:01 10° NW 18:06:40 48° NNE 18:12:43 10° E
Cosmos 1954 Rocket 4.0 18:02:13 10° S 18:07:23 73° ESE 18:12:37 10° NNE
Cosmos 2181 Rocket 4.1 18:01:41 10° N 18:07:52 59° ENE 18:14:08 10° SSE
Cosmos 1536 3.7 18:04:49 10° SSE 18:08:11 27° E 18:11:33 10° NNE
Okean 1 3.7 18:06:16 10° NNW 18:10:19 70° W 18:14:22 10° S
HJ-1C 4.2 18:12:22 10° SE 18:15:20 29° ENE 18:18:20 10° N
SL-16 R/B 4.2 18:16:00 10° NNE 18:16:19 10° NE 18:16:37 10° NE
Cosmos 1709 Rocket 4.0 18:13:09 10° S 18:19:21 81° E 18:25:31 10° N
Cosmos 2074 Rocket 4.5 18:14:53 10° SSE 18:20:30 36° E 18:26:10 10° NNE
Okean 1 Rocket 3.2 18:20:09 10° S 18:24:31 54° E 18:28:54 10° NNE
Cosmos 2184 Rocket 4.4 18:19:57 10° SSE 18:25:41 38° E 18:31:23 10° NNE
Cosmos 1602 3.7 18:23:45 10° S 18:27:38 85° E 18:31:35 10° N
Meteor 1-11 Rocket 3.8 18:23:29 10° S 18:29:16 72° E 18:35:11 10° NNE
Cosmos 1340 3.4 18:27:55 10° NNW 18:31:40 56° W 18:35:21 10° S
Cosmos 1833 4.4 18:26:10 10° SSW 18:31:51 76° WNW 18:37:31 10° NNE
Cosmos 1025 Rocket 3.4 18:30:05 10° N 18:34:16 43° ENE 18:38:27 10° SSE
ALOS 2.2 18:30:57 10° SSE 18:35:33 63° ENE 18:40:11 10° N
USA 186 3.9 18:38:04 11° NE 18:38:04 11° NE 18:38:17 10° NNE
Cosmos 2333 Rocket 2.9 18:32:55 10° N 18:38:07 34° NE 18:41:50 17° ESE
FENGYUN 3A 3.6 18:44:34 10° SSE 18:49:59 83° ENE 18:55:27 10° NNW
Abrixas rocket 2.5 18:48:41 10° SW 18:51:57 51° SSE 18:52:57 36° E
Cosmos 1544 Rocket 4.4 18:49:20 10° SSE 18:53:00 27° E 18:56:40 10° NNE
FREGAT/IRIS 4.1 18:50:36 10° S 18:53:31 40° W 18:56:29 10° NNW
Cosmos 1741 Rocket 3.9 18:48:45 10° SSW 18:53:58 86° ESE 18:59:13 10° NNE
NOSS 0 Rocket 4.2 18:48:17 10° NNW 18:54:12 46° ENE 18:58:02 21° ESE
Cosmos 2285 Rocket 4.0 18:47:59 10° NNW 18:54:24 65° ENE 19:00:45 10° SSE
Genesis I 4.0 18:51:48 10° NW 18:55:37 50° WSW 18:59:26 10° SSE
GEOS 3 Rocket 3.9 18:51:19 12° NE 18:55:56 48° ESE 19:01:01 10° SSW
Okean 1-7 Rocket 3.7 18:52:10 10° N 18:56:42 82° W 19:01:10 10° S
GPS 2-04 Rocket1 4.3 18:57:06 10° SW 19:00:40 26° S 19:01:59 22° SE
FengYun 1-2 T 4.3 18:58:34 10° S 19:04:03 78° WSW 19:09:36 10° NNW
Meteor 1-5 Rocket 4.2 18:58:23 10° S 19:04:19 73° E 19:10:11 10° NNE
ATLAS CENTAUR R/B 3.2 19:12:35 10° SSW 19:14:33 20° S 19:14:33 20° S
Cosmos 405 Rocket 2.6 19:18:27 10° N 19:22:33 79° E 19:23:33 50° SSE
Cosmos 468 Rocket 3.9 19:17:44 10° NNW 19:23:00 73° ENE 19:25:21 33° SSE
USA 229 DEB 3.9 19:17:04 10° NW 19:24:12 77° WSW 19:29:53 18° SSE
USA 229 3.9 19:17:10 10° NW 19:24:18 78° WSW 19:29:56 18° SSE
Helios 1A 2.8 19:23:44 37° SSE 19:25:20 85° ENE 19:29:31 10° NNW
Okean 2 3.5 19:21:51 10° NNW 19:26:02 75° W 19:29:22 16° S
CZ-2D R/B 3.4 19:24:00 22° S 19:26:20 71° WSW 19:30:10 10° NNW
Cosmos 2237 Rocket 2.3 19:21:17 10° NNW 19:26:55 56° ENE 19:28:14 46° ESE
H-2A R/B 3.6 19:24:04 10° S 19:27:39 48° W 19:31:20 10° NNW
Spot 2 Rocket 4.1 19:22:44 10° S 19:27:42 57° W 19:32:43 10° NNW
COSMOS 2428 3.5 19:22:38 10° NW 19:28:08 50° WSW 19:33:35 10° S
Helios 1B rocket 2.3 19:24:36 10° NNE 19:28:46 73° ESE 19:32:54 10° S
Gbstr 26 Del rocket 3.4 19:25:12 10° W 19:28:49 45° NNW 19:29:29 40° N
Cosmos 1066 Rocket 4.4 19:24:49 10° N 19:30:14 45° ENE 19:30:18 45° ENE
Cosmos 2297 Rocket 4.0 19:25:17 10° SSE 19:26:20 15° SSE 19:26:20 15° SSE
Resurs 01 Rocket 2.9 19:32:25 10° SSW 19:36:33 39° W 19:40:43 10° NNW
NOSS 3-1 (A) 4.2 19:29:31 10° NNW 19:36:51 55° NE 19:39:19 42° E
Cosmos 2219 Rocket 2.3 19:35:05 10° NNW 19:40:41 71° WSW 19:43:37 29° S
Cosmos 1610 Rocket 4.5 19:34:35 10° S 19:40:48 81° W 19:47:00 10° N
ATLAS 2AS CENTAUR R/B 4.1 19:35:10 10° NNW 19:41:57 28° NNE 19:43:50 25° NE
Cosmos 1814 Rocket 3.8 19:37:41 10° NNW 19:42:52 82° ENE 19:43:32 68° SE
ERS-1 Rocket 4.0 19:45:15 32° NNE 19:45:15 32° NNE 19:48:21 10° N
Envisat 2.9 19:44:07 68° ENE 19:44:07 68° ENE 19:49:09 10° N
USA 32 4.1 19:40:44 10° N 19:45:17 58° NE 19:45:17 58° NE
Cosmos 2219 4.2 19:41:47 10° SW 19:47:17 45° WNW 19:52:49 10° NNE
Cosmos 2227 Rocket 2.3 19:44:52 10° SSW 19:49:27 55° SSE 19:49:27 55° SSE
NOSS 3-1 (C) 3.9 19:47:51 10° NW 19:55:25 81° NE 19:57:53 50° SE
SL-16 R/B 2.9 19:56:27 10° NNW 20:00:38 40° NNE 20:00:38 40° NNE
H-2A R/B 4.4 20:21:53 13° NNE 20:21:53 13° NNE 20:22:33 10° N
Cosmos 2333 Rocket 3.3 20:17:06 10° NW 20:22:27 41° WSW 20:23:54 35° SW
Cosmos 1980 4.4 20:20:22 10° NW 20:25:46 47° WSW 20:26:08 46° WSW
Cosmos 841 Rocket 4.4 20:21:03 10° NNW 20:24:32 43° NW 20:24:32 43° NW
Cosmos 2237 Rocket 4.2 21:06:13 10° NW 21:10:07 22° W 21:10:07 22° W
ATLAS 2AS CENTAUR R/B 3.9 21:26:12 10° NW 21:31:17 42° NNW 21:31:17 42° NNW
